TimeEST,TemperatureF,Dew PointF,Humidity,Sea Level PressureIn,VisibilityMPH,Wind Direction,Wind SpeedMPH,Gust SpeedMPH,PrecipitationIn,Events,Conditions,WindDirDegrees,DateUTC
12:53 AM,19.9,16.0,85,30.45,10.0,Calm,Calm,-,N/A,,Clear,0,2013-03-08 05:53:00
1:53 AM,18.0,14.0,84,30.47,10.0,Calm,Calm,-,N/A,,Partly Cloudy,0,2013-03-08 06:53:00
2:32 AM,17.6,12.2,79,30.45,10.0,Calm,Calm,-,N/A,,Mostly Cloudy,0,2013-03-08 07:32:00
2:53 AM,17.1,12.9,84,30.48,10.0,Calm,Calm,-,N/A,,Overcast,0,2013-03-08 07:53:00
3:20 AM,15.8,12.2,86,30.45,10.0,Calm,Calm,-,N/A,,Partly Cloudy,0,2013-03-08 08:20:00
3:53 AM,15.1,10.9,84,30.48,10.0,Calm,Calm,-,N/A,,Clear,0,2013-03-08 08:53:00
4:53 AM,14.0,10.0,84,30.48,10.0,Calm,Calm,-,N/A,,Clear,0,2013-03-08 09:53:00
5:53 AM,14.0,10.0,84,30.49,10.0,Calm,Calm,-,N/A,,Clear,0,2013-03-08 10:53:00
6:53 AM,12.9,9.0,84,30.50,10.0,Calm,Calm,-,N/A,,Clear,0,2013-03-08 11:53:00
7:53 AM,12.0,8.1,84,30.52,10.0,Calm,Calm,-,N/A,,Clear,0,2013-03-08 12:53:00
8:53 AM,19.9,16.0,85,30.52,10.0,Calm,Calm,-,N/A,,Partly Cloudy,0,2013-03-08 13:53:00
9:53 AM,27.0,19.0,72,30.51,10.0,SE,3.5,-,N/A,,Partly Cloudy,140,2013-03-08 14:53:00
10:53 AM,30.9,19.0,61,30.50,10.0,SSE,4.6,-,N/A,,Scattered Clouds,160,2013-03-08 15:53:00
11:53 AM,34.0,19.0,54,30.48,10.0,Variable,3.5,-,N/A,,Scattered Clouds,0,2013-03-08 16:53:00
12:53 PM,36.0,18.0,48,30.47,10.0,West,4.6,-,N/A,,Scattered Clouds,260,2013-03-08 17:53:00
1:53 PM,37.9,19.0,47,30.44,10.0,WNW,5.8,-,N/A,,Scattered Clouds,290,2013-03-08 18:53:00
2:53 PM,39.9,18.0,41,30.43,10.0,West,6.9,-,N/A,,Mostly Cloudy,260,2013-03-08 19:53:00
3:53 PM,41.0,17.1,38,30.42,10.0,West,4.6,-,N/A,,Mostly Cloudy,270,2013-03-08 20:53:00
4:53 PM,36.0,24.1,62,30.42,10.0,NNE,10.4,-,N/A,,Partly Cloudy,30,2013-03-08 21:53:00
5:53 PM,34.0,25.0,70,30.41,10.0,NE,5.8,-,N/A,,Scattered Clouds,50,2013-03-08 22:53:00
6:53 PM,33.1,24.1,70,30.41,10.0,ENE,3.5,-,N/A,,Scattered Clouds,60,2013-03-08 23:53:00
7:53 PM,30.0,23.0,75,30.41,10.0,Calm,Calm,-,N/A,,Scattered Clouds,0,2013-03-09 00:53:00
8:53 PM,28.0,21.9,78,30.41,10.0,Calm,Calm,-,N/A,,Scattered Clouds,0,2013-03-09 01:53:00
9:53 PM,26.1,21.9,84,30.41,10.0,Calm,Calm,-,N/A,,Clear,0,2013-03-09 02:53:00
10:53 PM,24.1,21.0,88,30.40,10.0,Calm,Calm,-,N/A,,Clear,0,2013-03-09 03:53:00
11:53 PM,28.0,21.9,78,30.37,10.0,Calm,Calm,-,N/A,,Clear,0,2013-03-09 04:53:00